Location: Deuil
(48.9767°N, 2.3272°E)
Time: 03:19:52
(UTC+00:00)

Cosmos 2360 Rocket - Pass Details

Date: 23 May 2022
Orbit: 832 x 846 km, 71.0° (Epoch: 03 July)

Event Time Altitude Azimuth Distance (km) Brightness Sun altitude
Exits shadow 00:26:32 22° 241° (WSW) 1,739 3.5 -19.9°
Maximum altitude 00:29:54 48° 306° (NW) 1,084 2.9 -19.8°
Drops below altitude 10° 00:35:22 10° 20° (NNE) 2,468 5.8 -19.7°
Sets 00:37:55 0° 26° (NNE) 3,409 6.8 -19.6°
